Year,Month,Day,Hour,Minute,Value (Times are PST for temperature in C)
2016,08,23,00,00,12.80
2016,08,23,00,01,12.80
2016,08,23,00,02,12.80
2016,08,23,00,03,12.80
2016,08,23,00,04,12.80
2016,08,23,00,05,12.80
2016,08,23,00,07,12.80
2016,08,23,00,09,12.80
2016,08,23,00,10,12.80
2016,08,23,00,12,12.80
2016,08,23,00,13,12.80
2016,08,23,00,14,12.80
2016,08,23,00,16,12.80
2016,08,23,00,17,12.80
2016,08,23,00,18,12.80
2016,08,23,00,19,12.80
2016,08,23,01,15,12.40
2016,08,23,01,16,12.30
2016,08,23,01,17,12.30
2016,08,23,01,19,12.30
2016,08,23,01,21,12.30
2016,08,23,01,22,12.30
2016,08,23,01,23,12.30
2016,08,23,01,24,12.30
2016,08,23,01,26,12.30
2016,08,23,01,27,12.30
2016,08,23,01,28,12.30
2016,08,23,01,29,12.30
2016,08,23,01,31,12.30
2016,08,23,01,32,12.30
2016,08,23,01,33,12.30
2016,08,23,01,34,12.30
2016,08,23,01,36,12.30
2016,08,23,01,37,12.30
2016,08,23,01,38,12.30
2016,08,23,01,39,12.30
2016,08,23,01,41,12.30
2016,08,23,01,42,12.30
2016,08,23,01,43,12.30
2016,08,23,01,44,12.30
2016,08,23,01,46,12.30
2016,08,23,01,47,12.30
2016,08,23,01,48,12.30
2016,08,23,01,49,12.30
2016,08,23,01,51,12.30
2016,08,23,01,52,12.30
2016,08,23,01,53,12.30
2016,08,23,01,54,12.30
2016,08,23,01,56,12.30
2016,08,23,01,57,12.30
2016,08,23,01,58,12.30
2016,08,23,01,59,12.30
2016,08,23,02,01,12.30
2016,08,23,02,02,12.30
2016,08,23,02,03,12.30
2016,08,23,02,04,12.30
2016,08,23,02,06,12.30
2016,08,23,02,07,12.30
2016,08,23,02,08,12.30
2016,08,23,02,09,12.30
2016,08,23,02,11,12.30
2016,08,23,02,12,12.30
2016,08,23,02,13,12.30
2016,08,23,02,14,12.30
2016,08,23,02,16,12.30
2016,08,23,02,17,12.30
2016,08,23,02,18,12.30
2016,08,23,02,19,12.30
2016,08,23,02,21,12.30
2016,08,23,02,22,12.30
2016,08,23,02,23,12.30
2016,08,23,02,24,12.30
2016,08,23,02,26,12.20
2016,08,23,02,27,12.20
2016,08,23,02,28,12.20
2016,08,23,02,29,12.20
2016,08,23,02,31,12.20
2016,08,23,02,32,12.20
2016,08,23,02,33,12.20
2016,08,23,02,34,12.20
2016,08,23,02,36,12.20
2016,08,23,02,37,12.20
2016,08,23,02,38,12.20
2016,08,23,02,39,12.20
2016,08,23,02,41,12.20
2016,08,23,02,42,12.20
2016,08,23,02,43,12.30
2016,08,23,02,44,12.30
2016,08,23,02,45,12.30
2016,08,23,02,46,12.30
2016,08,23,02,47,12.30
2016,08,23,02,48,12.30
2016,08,23,02,49,12.30
2016,08,23,02,50,12.30
2016,08,23,02,51,12.30
2016,08,23,02,52,12.30
2016,08,23,02,53,12.30
2016,08,23,02,54,12.30
2016,08,23,02,55,12.30
2016,08,23,02,56,12.30
2016,08,23,02,57,12.30
2016,08,23,02,58,12.30
2016,08,23,02,59,12.30
2016,08,23,03,00,12.30
2016,08,23,03,01,12.30
2016,08,23,03,02,12.30
2016,08,23,03,03,12.30
2016,08,23,03,04,12.30
2016,08,23,03,05,12.30
2016,08,23,03,06,12.30
2016,08,23,03,07,12.20
2016,08,23,03,08,12.20
2016,08,23,03,09,12.20
2016,08,23,03,10,12.20
2016,08,23,03,11,12.20
2016,08,23,03,12,12.20
2016,08,23,03,13,12.20
2016,08,23,03,14,12.20
2016,08,23,03,15,12.20
2016,08,23,03,16,12.20
2016,08,23,03,17,12.20
2016,08,23,03,18,12.20
2016,08,23,03,19,12.20
2016,08,23,03,20,12.20
2016,08,23,03,21,12.20
2016,08,23,03,22,12.20
2016,08,23,03,23,12.20
2016,08,23,03,24,12.20
2016,08,23,03,25,12.20
2016,08,23,03,26,12.30
2016,08,23,03,27,12.30
2016,08,23,03,28,12.30
2016,08,23,03,29,12.30
2016,08,23,03,30,12.30
2016,08,23,03,31,12.30
2016,08,23,03,32,12.30
2016,08,23,03,33,12.30
2016,08,23,03,34,12.30
2016,08,23,03,35,12.30
2016,08,23,03,36,12.30
2016,08,23,03,37,12.30
2016,08,23,03,38,12.30
2016,08,23,03,39,12.30
2016,08,23,03,40,12.20
2016,08,23,03,41,12.20
2016,08,23,03,42,12.20
2016,08,23,03,43,12.10
2016,08,23,03,44,12.10
2016,08,23,03,45,12.00
2016,08,23,03,46,12.00
2016,08,23,03,47,12.00
2016,08,23,03,48,11.90
2016,08,23,03,49,11.90
2016,08,23,03,50,11.90
2016,08,23,03,51,11.80
2016,08,23,03,52,11.80
2016,08,23,03,53,11.80
2016,08,23,03,54,11.80
2016,08,23,03,56,11.80
2016,08,23,03,57,11.80
2016,08,23,03,58,11.80
2016,08,23,03,59,11.70
2016,08,23,04,00,11.70
2016,08,23,04,02,11.70
2016,08,23,04,03,11.70
2016,08,23,04,04,11.60
2016,08,23,04,06,11.60
2016,08,23,04,07,11.60
2016,08,23,04,08,11.60
2016,08,23,04,09,11.60
2016,08,23,04,11,11.60
2016,08,23,04,12,11.60
2016,08,23,04,13,11.60
2016,08,23,04,14,11.60
2016,08,23,04,16,11.60
2016,08,23,04,17,11.60
2016,08,23,04,18,11.60
2016,08,23,04,19,11.60
2016,08,23,04,21,11.40
2016,08,23,04,22,11.40
2016,08,23,04,23,11.40
2016,08,23,04,24,11.60
2016,08,23,04,26,11.60
2016,08,23,04,27,11.60
2016,08,23,04,28,11.60
2016,08,23,04,29,11.60
2016,08,23,04,31,11.60
2016,08,23,04,32,11.60
2016,08,23,04,33,11.60
2016,08,23,04,34,11.60
2016,08,23,04,36,11.60
2016,08,23,04,37,11.70
2016,08,23,04,38,11.70
2016,08,23,04,39,11.70
2016,08,23,04,41,11.70
2016,08,23,04,42,11.70
2016,08,23,04,43,11.80
2016,08,23,04,44,11.80
2016,08,23,04,46,11.80
2016,08,23,04,47,11.80
2016,08,23,04,48,11.80
2016,08,23,04,49,11.80
2016,08,23,04,51,11.80
2016,08,23,04,52,11.80
2016,08,23,04,53,11.80
2016,08,23,04,54,11.80
2016,08,23,04,55,11.80
2016,08,23,04,56,11.80
2016,08,23,04,57,11.90
2016,08,23,04,58,11.90
2016,08,23,04,59,11.90
2016,08,23,05,00,12.00
2016,08,23,05,01,12.00
2016,08,23,05,02,12.00
2016,08,23,05,03,12.00
2016,08,23,05,04,12.00
2016,08,23,05,06,12.10
2016,08,23,05,07,12.10
2016,08,23,05,09,12.00
2016,08,23,05,10,12.00
2016,08,23,05,11,12.00
2016,08,23,05,12,12.00
2016,08,23,05,13,11.90
2016,08,23,05,14,11.90
2016,08,23,05,15,11.90
2016,08,23,05,16,11.90
2016,08,23,05,17,11.80
2016,08,23,05,18,11.80
2016,08,23,05,19,11.80
2016,08,23,05,20,11.80
2016,08,23,05,21,11.80
2016,08,23,05,22,11.80
2016,08,23,05,23,11.80
2016,08,23,05,24,11.80
2016,08,23,05,25,11.80
2016,08,23,05,26,11.80
2016,08,23,05,27,11.80
2016,08,23,05,28,11.80
2016,08,23,05,29,11.80
2016,08,23,05,30,11.80
2016,08,23,05,31,11.80
2016,08,23,05,32,11.80
2016,08,23,05,33,11.80
2016,08,23,05,34,11.80
2016,08,23,05,35,11.80
2016,08,23,05,36,11.80
2016,08,23,05,37,11.80
2016,08,23,05,38,11.80
2016,08,23,05,39,11.80
2016,08,23,05,40,11.80
2016,08,23,05,41,11.80
2016,08,23,05,42,11.80
2016,08,23,05,43,11.80
2016,08,23,05,44,11.80
2016,08,23,05,45,11.80
2016,08,23,05,46,11.80
2016,08,23,05,47,11.80
2016,08,23,05,48,11.80
2016,08,23,05,49,11.80
2016,08,23,05,50,11.80
2016,08,23,05,51,11.80
2016,08,23,05,52,11.80
2016,08,23,05,53,11.80
2016,08,23,05,54,11.80
2016,08,23,05,55,11.80
2016,08,23,05,56,11.80
2016,08,23,05,57,11.80
2016,08,23,05,58,11.80
2016,08,23,05,59,11.70
2016,08,23,06,00,11.70
2016,08,23,06,01,11.70
2016,08,23,06,02,11.70
2016,08,23,06,03,11.60
2016,08,23,06,04,11.60
2016,08,23,06,05,11.60
2016,08,23,06,06,11.60
2016,08,23,06,15,11.60
2016,08,23,06,16,11.60
2016,08,23,06,17,11.60
2016,08,23,06,19,11.70
2016,08,23,06,21,11.70
2016,08,23,06,22,11.70
2016,08,23,06,23,11.80
2016,08,23,06,24,11.80
2016,08,23,06,26,11.80
2016,08,23,06,27,11.80
2016,08,23,06,28,11.80
2016,08,23,06,29,11.80
2016,08,23,06,31,11.90
2016,08,23,06,32,11.90
2016,08,23,06,33,11.90
2016,08,23,06,34,11.90
2016,08,23,07,15,12.30
2016,08,23,07,16,12.30
2016,08,23,07,18,12.30
2016,08,23,07,19,12.30
2016,08,23,07,21,12.30
2016,08,23,07,22,12.40
2016,08,23,07,23,12.40
2016,08,23,07,24,12.50
2016,08,23,07,26,12.50
2016,08,23,07,27,12.60
2016,08,23,07,28,12.60
2016,08,23,07,29,12.60
2016,08,23,07,31,12.70
2016,08,23,07,32,12.70
2016,08,23,07,33,12.70
2016,08,23,07,34,12.80
2016,08,23,07,36,12.80
2016,08,23,07,37,12.80
2016,08,23,07,38,12.90
2016,08,23,07,39,12.90
2016,08,23,07,41,13.00
2016,08,23,07,42,13.00
2016,08,23,07,43,13.10
2016,08,23,07,44,13.10
2016,08,23,07,46,13.20
2016,08,23,07,47,13.20
2016,08,23,07,48,13.30
2016,08,23,07,49,13.30
2016,08,23,07,51,13.40
2016,08,23,07,52,13.50
2016,08,23,07,53,13.70
2016,08,23,07,54,13.70
2016,08,23,07,56,14.00
2016,08,23,07,57,14.10
2016,08,23,07,58,14.20
2016,08,23,07,59,14.20
2016,08,23,08,01,14.40
2016,08,23,08,02,14.50
2016,08,23,08,03,14.50
2016,08,23,08,04,14.60
2016,08,23,08,06,14.80
2016,08,23,08,07,14.90
2016,08,23,08,08,15.00
2016,08,23,08,09,15.10
2016,08,23,08,11,15.30
2016,08,23,08,12,15.40
2016,08,23,08,13,15.50
2016,08,23,08,14,15.50
2016,08,23,08,16,15.70
2016,08,23,08,17,15.80
2016,08,23,08,18,15.80
2016,08,23,08,19,15.90
2016,08,23,08,21,16.20
2016,08,23,08,22,16.20
2016,08,23,08,23,16.30
2016,08,23,08,24,16.30
2016,08,23,08,26,16.30
2016,08,23,08,27,16.40
2016,08,23,08,28,16.40
2016,08,23,08,29,16.40
2016,08,23,08,31,16.60
2016,08,23,08,32,16.70
2016,08,23,08,33,16.70
2016,08,23,08,34,16.70
2016,08,23,08,36,16.70
2016,08,23,08,37,16.80
2016,08,23,08,38,16.80
2016,08,23,08,39,16.90
2016,08,23,08,41,16.90
2016,08,23,08,42,16.90
2016,08,23,08,43,17.00
2016,08,23,08,44,17.00
2016,08,23,08,45,17.00
2016,08,23,08,46,17.00
2016,08,23,08,47,17.10
2016,08,23,08,48,17.10
2016,08,23,08,49,17.10
2016,08,23,08,50,17.10
2016,08,23,08,51,17.10
2016,08,23,08,52,17.20
2016,08,23,08,53,17.20
2016,08,23,08,54,17.20
2016,08,23,08,55,17.20
2016,08,23,08,56,17.20
2016,08,23,08,57,17.20
2016,08,23,08,58,17.20
2016,08,23,08,59,17.30
2016,08,23,09,00,17.30
2016,08,23,09,01,17.30
2016,08,23,09,02,17.30
2016,08,23,09,03,17.30
2016,08,23,09,04,17.30
2016,08,23,09,05,17.30
2016,08,23,09,06,17.30
2016,08,23,09,07,17.30
2016,08,23,09,08,17.30
2016,08,23,09,09,17.30
2016,08,23,09,10,17.40
2016,08,23,09,11,17.40
2016,08,23,09,12,17.40
2016,08,23,09,13,17.40
2016,08,23,09,14,17.50
2016,08,23,09,15,17.50
2016,08,23,09,16,17.60
2016,08,23,09,17,17.70
2016,08,23,09,18,17.70
2016,08,23,09,19,17.70
2016,08,23,09,20,17.80
2016,08,23,09,21,17.80
2016,08,23,09,22,17.80
2016,08,23,09,23,17.90
2016,08,23,09,24,17.90
2016,08,23,09,25,17.90
2016,08,23,09,26,17.90
2016,08,23,09,27,17.90
2016,08,23,09,28,18.10
2016,08,23,09,29,18.10
2016,08,23,09,30,18.10
2016,08,23,09,31,18.10
2016,08,23,09,32,18.20
2016,08,23,09,33,18.20
2016,08,23,09,34,18.20
2016,08,23,09,36,18.20
2016,08,23,09,37,18.20
2016,08,23,09,38,18.30
2016,08,23,09,39,18.30
2016,08,23,09,40,18.30
2016,08,23,09,41,18.30
2016,08,23,09,42,18.40
2016,08,23,09,43,18.40
2016,08,23,09,44,18.50
2016,08,23,09,45,18.50
2016,08,23,09,46,18.50
2016,08,23,09,47,18.60
2016,08,23,09,48,18.60
2016,08,23,09,49,18.70
2016,08,23,09,50,18.70
2016,08,23,09,51,18.80
2016,08,23,09,52,18.90
2016,08,23,09,53,18.90
2016,08,23,09,54,18.90
2016,08,23,09,55,18.90
2016,08,23,09,56,18.90
2016,08,23,09,57,18.90
2016,08,23,09,58,18.90
2016,08,23,09,59,18.90
2016,08,23,10,00,18.90
2016,08,23,10,02,18.90
2016,08,23,10,03,18.90
2016,08,23,10,04,18.90
2016,08,23,10,06,19.10
2016,08,23,10,07,19.10
2016,08,23,10,08,19.10
2016,08,23,10,09,19.10
2016,08,23,10,11,18.90
2016,08,23,10,12,18.90
2016,08,23,10,13,18.90
2016,08,23,10,14,18.90
2016,08,23,10,16,18.90
2016,08,23,10,17,18.90
2016,08,23,10,18,18.90
2016,08,23,10,19,18.90
2016,08,23,10,21,18.90
2016,08,23,10,22,18.90
2016,08,23,10,23,18.90
2016,08,23,10,24,18.90
2016,08,23,10,26,18.90
2016,08,23,10,27,18.90
2016,08,23,10,28,18.90
2016,08,23,10,29,18.90
2016,08,23,10,31,18.90
2016,08,23,10,32,18.90
2016,08,23,10,33,18.90
2016,08,23,10,34,18.90
2016,08,23,10,36,18.90
2016,08,23,10,37,18.90
2016,08,23,10,38,18.90
2016,08,23,10,39,18.90
2016,08,23,10,41,18.90
2016,08,23,10,42,19.10
2016,08,23,10,43,19.10
2016,08,23,10,44,19.10
2016,08,23,10,46,19.10
2016,08,23,10,47,19.10
2016,08,23,10,48,19.20
2016,08,23,10,49,19.20
2016,08,23,10,51,19.40
2016,08,23,10,52,19.50
2016,08,23,10,53,19.60
2016,08,23,10,54,19.70
2016,08,23,10,56,19.80
2016,08,23,10,57,19.80
2016,08,23,10,58,19.90
2016,08,23,10,59,19.90
2016,08,23,11,01,20.20
2016,08,23,11,02,20.20
2016,08,23,11,03,20.20
2016,08,23,11,04,20.30
2016,08,23,11,06,20.40
2016,08,23,11,07,20.50
2016,08,23,11,08,20.60
2016,08,23,11,09,20.70
2016,08,23,11,11,20.80
2016,08,23,11,12,20.90
2016,08,23,11,13,20.90
2016,08,23,11,14,20.90
2016,08,23,11,16,21.00
2016,08,23,11,17,21.00
2016,08,23,11,18,21.10
2016,08,23,11,19,21.10
2016,08,23,11,21,21.10
2016,08,23,11,22,21.10
2016,08,23,11,23,21.10
2016,08,23,11,24,21.10
2016,08,23,11,25,21.10
2016,08,23,11,26,21.10
2016,08,23,11,27,21.10
2016,08,23,11,28,21.10
2016,08,23,11,29,21.20
2016,08,23,11,31,21.20
2016,08,23,11,32,21.20
2016,08,23,11,33,21.20
2016,08,23,11,34,21.10
2016,08,23,11,36,21.10
2016,08,23,11,37,21.10
2016,08,23,11,38,21.10
2016,08,23,11,39,21.10
2016,08,23,11,40,21.20
2016,08,23,11,41,21.30
2016,08,23,11,42,21.30
2016,08,23,11,43,21.30
2016,08,23,11,44,21.30
2016,08,23,11,45,21.30
2016,08,23,11,46,21.20
2016,08,23,11,47,21.10
2016,08,23,11,48,21.10
2016,08,23,11,49,21.00
2016,08,23,11,50,21.00
2016,08,23,11,51,20.90
2016,08,23,11,52,20.90
2016,08,23,11,53,20.90
2016,08,23,11,54,20.80
2016,08,23,11,55,20.80
2016,08,23,11,56,20.80
2016,08,23,11,57,20.80
2016,08,23,11,58,20.90
2016,08,23,11,59,20.90
2016,08,23,12,00,21.00
2016,08,23,12,01,21.00
2016,08,23,12,02,21.00
2016,08,23,12,03,21.00
2016,08,23,12,04,21.10
2016,08,23,12,05,21.20
2016,08,23,12,06,21.30
2016,08,23,12,07,21.30
2016,08,23,12,08,21.30
2016,08,23,12,09,21.40
2016,08,23,12,10,21.60
2016,08,23,12,11,21.60
2016,08,23,12,12,21.60
2016,08,23,12,13,21.60
2016,08,23,12,14,21.60
2016,08,23,12,15,21.60
2016,08,23,12,16,21.70
2016,08,23,12,17,21.60
2016,08,23,12,18,21.60
2016,08,23,12,19,21.60
2016,08,23,12,20,21.60
2016,08,23,12,21,21.60
2016,08,23,12,22,21.60
2016,08,23,12,23,21.60
2016,08,23,12,24,21.60
2016,08,23,12,25,21.60
2016,08,23,12,26,21.60
2016,08,23,12,27,21.70
2016,08,23,12,28,21.70
2016,08,23,12,29,21.70
2016,08,23,12,30,21.80
2016,08,23,12,31,21.80
2016,08,23,12,32,21.90
2016,08,23,12,33,22.00
2016,08,23,12,34,22.00
2016,08,23,12,35,22.10
2016,08,23,12,36,22.00
2016,08,23,12,37,22.00
2016,08,23,12,38,21.90
2016,08,23,12,39,21.80
2016,08,23,12,40,21.70
2016,08,23,12,41,21.60
2016,08,23,12,42,21.60
2016,08,23,12,43,21.40
2016,08,23,12,44,21.30
2016,08,23,12,45,21.20
2016,08,23,12,46,21.10
2016,08,23,12,47,21.00
2016,08,23,12,48,20.90
2016,08,23,12,49,20.90
2016,08,23,12,50,20.80
2016,08,23,12,51,20.70
2016,08,23,12,53,20.60
2016,08,23,12,54,20.50
2016,08,23,12,56,20.40
2016,08,23,12,57,20.40
2016,08,23,12,58,20.30
2016,08,23,12,59,20.30
2016,08,23,13,00,20.30
2016,08,23,13,02,20.20
2016,08,23,13,03,20.20
2016,08,23,13,04,20.20
2016,08,23,13,06,20.20
2016,08,23,13,07,20.20
2016,08,23,13,08,20.10
2016,08,23,13,09,20.10
2016,08,23,13,11,19.90
2016,08,23,13,12,19.90
2016,08,23,13,13,19.90
2016,08,23,13,14,19.80
2016,08,23,13,16,19.80
2016,08,23,13,17,19.80
2016,08,23,13,18,19.80
2016,08,23,13,19,19.80
2016,08,23,13,21,19.80
2016,08,23,13,22,19.90
2016,08,23,13,23,19.90
2016,08,23,13,24,19.90
2016,08,23,13,26,19.90
2016,08,23,13,27,19.90
2016,08,23,13,28,19.90
2016,08,23,13,29,19.90
2016,08,23,13,31,19.90
2016,08,23,13,32,19.90
2016,08,23,13,33,19.90
2016,08,23,13,34,20.10
2016,08,23,13,36,20.10
2016,08,23,13,37,20.10
2016,08,23,13,38,20.20
2016,08,23,13,39,20.20
2016,08,23,13,41,20.20
2016,08,23,13,42,20.20
2016,08,23,13,43,20.20
2016,08,23,13,44,20.20
2016,08,23,13,46,20.30
2016,08,23,13,47,20.30
2016,08,23,13,48,20.20
2016,08,23,13,49,20.20
2016,08,23,13,51,20.20
2016,08,23,13,52,20.20
2016,08,23,13,53,20.20
2016,08,23,13,54,20.20
2016,08,23,13,56,20.10
2016,08,23,13,57,20.10
2016,08,23,13,58,20.10
2016,08,23,13,59,19.90
2016,08,23,14,01,19.90
2016,08,23,14,02,19.90
2016,08,23,14,03,19.90
2016,08,23,14,04,20.10
2016,08,23,14,06,20.20
2016,08,23,14,07,20.20
2016,08,23,14,08,20.20
2016,08,23,14,09,20.20
2016,08,23,14,11,20.20
2016,08,23,14,12,20.20
2016,08,23,14,13,20.20
2016,08,23,14,14,20.20
2016,08,23,14,15,20.20
2016,08,23,14,16,20.30
2016,08,23,14,17,20.30
2016,08,23,14,18,20.30
2016,08,23,14,19,20.30
2016,08,23,14,21,20.30
2016,08,23,14,22,20.30
2016,08,23,14,23,20.20
2016,08,23,14,24,20.20
2016,08,23,14,25,20.20
2016,08,23,14,26,20.20
2016,08,23,14,27,20.20
2016,08,23,14,28,20.20
2016,08,23,14,29,20.20
2016,08,23,14,31,20.10
2016,08,23,14,32,20.10
2016,08,23,14,33,20.10
2016,08,23,14,34,20.10
2016,08,23,14,35,20.10
2016,08,23,14,36,20.10
2016,08,23,14,37,20.10
2016,08,23,14,38,20.20
2016,08,23,14,39,20.20
2016,08,23,14,40,20.20
2016,08,23,14,41,20.20
2016,08,23,14,42,20.20
2016,08,23,14,43,20.20
2016,08,23,14,44,20.20
2016,08,23,14,45,20.30
2016,08,23,14,46,20.30
2016,08,23,14,47,20.40
2016,08,23,14,48,20.40
2016,08,23,14,49,20.50
2016,08,23,14,50,20.60
2016,08,23,14,51,20.60
2016,08,23,14,52,20.70
2016,08,23,14,53,20.80
2016,08,23,14,54,20.90
2016,08,23,14,55,21.00
2016,08,23,14,56,21.10
2016,08,23,14,57,21.20
2016,08,23,14,58,21.30
2016,08,23,14,59,21.30
2016,08,23,15,00,21.40
2016,08,23,15,01,21.60
2016,08,23,15,02,21.60
2016,08,23,15,03,21.70
2016,08,23,15,04,21.80
2016,08,23,15,05,21.90
2016,08,23,15,06,22.00
2016,08,23,15,07,22.10
2016,08,23,15,08,22.20
2016,08,23,15,09,22.20
2016,08,23,15,10,22.20
2016,08,23,15,11,22.10
2016,08,23,15,12,22.10
2016,08,23,15,13,22.00
2016,08,23,15,14,21.90
2016,08,23,15,15,21.80
2016,08,23,15,16,21.70
2016,08,23,15,17,21.60
2016,08,23,15,18,21.40
2016,08,23,15,19,21.30
2016,08,23,15,20,21.30
2016,08,23,15,21,21.20
2016,08,23,15,22,21.10
2016,08,23,15,23,21.00
2016,08,23,15,24,21.00
2016,08,23,15,25,21.00
2016,08,23,15,26,20.90
2016,08,23,15,27,20.90
2016,08,23,15,28,20.90
2016,08,23,15,29,20.90
2016,08,23,15,30,20.90
2016,08,23,15,31,21.00
2016,08,23,15,32,21.00
2016,08,23,15,33,21.10
2016,08,23,15,34,21.20
2016,08,23,15,35,21.20
2016,08,23,15,36,21.30
2016,08,23,15,37,21.30
2016,08,23,15,38,21.30
2016,08,23,15,39,21.40
2016,08,23,15,41,21.60
2016,08,23,15,42,21.60
2016,08,23,15,43,21.60
2016,08,23,15,44,21.60
2016,08,23,15,46,21.70
2016,08,23,15,47,21.70
2016,08,23,15,48,21.80
2016,08,23,15,49,21.90
2016,08,23,15,51,22.10
2016,08,23,15,52,22.20
2016,08,23,15,53,22.30
2016,08,23,15,54,22.30
2016,08,23,15,56,22.50
2016,08,23,15,57,22.50
2016,08,23,15,58,22.60
2016,08,23,15,59,22.70
2016,08,23,16,01,22.90
2016,08,23,16,02,22.90
2016,08,23,16,03,23.10
2016,08,23,16,04,23.20
2016,08,23,16,06,23.30
2016,08,23,16,07,23.40
2016,08,23,16,08,23.60
2016,08,23,16,09,23.70
2016,08,23,16,11,23.70
2016,08,23,16,12,23.70
2016,08,23,16,13,23.80
2016,08,23,16,14,23.80
2016,08,23,16,16,23.90
2016,08,23,16,17,23.90
2016,08,23,16,18,23.90
2016,08,23,16,19,23.90
2016,08,23,16,21,23.90
2016,08,23,16,22,23.90
2016,08,23,16,23,23.90
2016,08,23,16,24,23.80
2016,08,23,16,26,23.80
2016,08,23,16,27,23.80
2016,08,23,16,28,23.90
2016,08,23,16,29,23.90
2016,08,23,16,31,23.80
2016,08,23,16,32,23.80
2016,08,23,16,33,23.80
2016,08,23,16,34,23.80
2016,08,23,16,36,23.80
2016,08,23,16,37,23.80
2016,08,23,16,38,23.70
2016,08,23,16,39,23.70
2016,08,23,16,41,23.60
2016,08,23,16,42,23.40
2016,08,23,16,43,23.40
2016,08,23,16,44,23.30
2016,08,23,16,46,23.30
2016,08,23,16,47,23.30
2016,08,23,16,48,23.20
2016,08,23,16,49,23.20
2016,08,23,16,51,23.10
2016,08,23,16,52,23.10
2016,08,23,16,53,23.10
2016,08,23,16,54,22.90
2016,08,23,16,56,22.90
2016,08,23,16,57,22.90
2016,08,23,16,58,22.90
2016,08,23,16,59,22.80
2016,08,23,17,00,22.80
2016,08,23,17,01,22.80
2016,08,23,17,02,22.80
2016,08,23,17,03,22.70
2016,08,23,17,04,22.70
2016,08,23,17,06,22.70
2016,08,23,17,07,22.60
2016,08,23,17,08,22.60
2016,08,23,17,09,22.40
2016,08,23,17,11,22.10
2016,08,23,17,12,22.00
2016,08,23,17,13,21.90
2016,08,23,17,14,21.90
2016,08,23,17,15,21.80
2016,08,23,17,16,21.70
2016,08,23,17,17,21.60
2016,08,23,17,18,21.30
2016,08,23,17,19,21.30
2016,08,23,17,20,21.00
2016,08,23,17,21,20.90
2016,08,23,17,22,20.80
2016,08,23,17,23,20.70
2016,08,23,17,24,20.60
2016,08,23,17,25,20.60
2016,08,23,17,26,20.60
2016,08,23,17,27,20.60
2016,08,23,17,28,20.60
2016,08,23,17,29,20.70
2016,08,23,17,30,20.70
2016,08,23,17,31,20.70
2016,08,23,17,32,20.70
2016,08,23,17,33,20.70
2016,08,23,17,34,20.70
2016,08,23,17,35,20.60
2016,08,23,17,36,20.50
2016,08,23,17,37,20.40
2016,08,23,17,38,20.30
2016,08,23,17,39,20.30
2016,08,23,17,40,20.20
2016,08,23,17,41,20.20
2016,08,23,17,42,20.20
2016,08,23,17,43,20.20
2016,08,23,17,44,20.20
2016,08,23,17,45,20.10
2016,08,23,17,46,19.90
2016,08,23,17,47,19.90
2016,08,23,17,48,19.90
2016,08,23,17,49,19.90
2016,08,23,17,50,19.90
2016,08,23,17,51,19.90
2016,08,23,17,52,19.90
2016,08,23,17,53,19.80
2016,08,23,17,54,19.80
2016,08,23,17,55,19.70
2016,08,23,17,56,19.60
2016,08,23,17,57,19.60
2016,08,23,17,58,19.60
2016,08,23,17,59,19.50
2016,08,23,18,00,19.40
2016,08,23,18,01,19.40
2016,08,23,18,02,19.30
2016,08,23,18,03,19.20
2016,08,23,18,04,19.20
2016,08,23,18,05,19.20
2016,08,23,18,06,19.10
2016,08,23,18,07,19.10
2016,08,23,18,08,19.10
2016,08,23,18,09,19.10
2016,08,23,18,10,19.10
2016,08,23,18,11,19.20
2016,08,23,18,12,19.20
2016,08,23,18,13,19.30
2016,08,23,18,14,19.30
2016,08,23,18,15,19.30
2016,08,23,18,16,19.30
2016,08,23,18,17,19.30
2016,08,23,18,18,19.30
2016,08,23,18,19,19.30
2016,08,23,18,20,19.30
2016,08,23,18,21,19.30
2016,08,23,18,22,19.30
2016,08,23,18,23,19.30
2016,08,23,18,24,19.30
2016,08,23,18,25,19.30
2016,08,23,18,26,19.40
2016,08,23,18,27,19.40
2016,08,23,18,28,19.40
2016,08,23,18,29,19.40
2016,08,23,18,30,19.30
2016,08,23,18,31,19.20
2016,08,23,18,32,19.10
2016,08,23,18,33,19.10
2016,08,23,18,34,18.90
2016,08,23,18,35,18.70
2016,08,23,18,37,18.40
2016,08,23,18,38,18.40
2016,08,23,18,39,18.30
2016,08,23,18,41,18.30
2016,08,23,18,42,18.30
2016,08,23,18,43,18.30
2016,08,23,18,44,18.20
2016,08,23,18,46,18.10
2016,08,23,18,47,17.90
2016,08,23,18,48,17.80
2016,08,23,18,49,17.70
2016,08,23,18,51,17.40
2016,08,23,18,52,17.30
2016,08,23,18,53,17.30
2016,08,23,18,54,17.30
2016,08,23,18,56,17.30
2016,08,23,18,57,17.30
2016,08,23,18,58,17.20
2016,08,23,18,59,17.20
2016,08,23,19,01,17.10
2016,08,23,19,02,17.10
2016,08,23,19,03,17.10
2016,08,23,19,04,17.10
2016,08,23,19,06,17.00
2016,08,23,19,07,17.00
2016,08,23,19,08,17.00
2016,08,23,19,09,17.00
2016,08,23,19,11,16.90
2016,08,23,19,12,16.90
2016,08,23,19,13,16.90
2016,08,23,19,14,16.90
2016,08,23,19,16,16.90
2016,08,23,19,17,16.90
2016,08,23,19,18,16.90
2016,08,23,19,19,16.90
2016,08,23,19,21,16.80
2016,08,23,19,22,16.80
2016,08,23,19,23,16.80
2016,08,23,19,24,16.80
2016,08,23,19,26,16.70
2016,08,23,19,27,16.70
2016,08,23,19,28,16.70
2016,08,23,19,29,16.70
2016,08,23,19,31,16.70
2016,08,23,19,32,16.70
2016,08,23,19,33,16.70
2016,08,23,19,34,16.60
2016,08,23,19,36,16.60
2016,08,23,19,37,16.60
2016,08,23,19,38,16.60
2016,08,23,19,39,16.60
2016,08,23,19,41,16.60
2016,08,23,19,42,16.60
2016,08,23,19,43,16.60
2016,08,23,19,44,16.60
2016,08,23,19,46,16.60
2016,08,23,19,47,16.60
2016,08,23,19,48,16.60
2016,08,23,19,49,16.60
2016,08,23,19,51,16.60
2016,08,23,19,52,16.60
2016,08,23,19,53,16.60
2016,08,23,19,54,16.60
2016,08,23,19,55,16.60
2016,08,23,19,56,16.60
2016,08,23,19,57,16.60
2016,08,23,19,58,16.60
2016,08,23,19,59,16.60
2016,08,23,20,01,16.60
2016,08,23,20,02,16.60
2016,08,23,20,03,16.60
2016,08,23,20,04,16.60
2016,08,23,20,06,16.60
2016,08,23,20,07,16.60
2016,08,23,20,08,16.60
2016,08,23,20,09,16.40
2016,08,23,20,11,16.40
2016,08,23,20,12,16.40
2016,08,23,20,13,16.40
2016,08,23,20,14,16.40
2016,08,23,20,15,16.30
2016,08,23,20,16,16.30
2016,08,23,20,17,16.30
2016,08,23,20,18,16.30
2016,08,23,20,19,16.30
2016,08,23,20,20,16.30
2016,08,23,20,21,16.30
2016,08,23,20,22,16.20
2016,08,23,20,23,16.20
2016,08,23,20,24,16.20
2016,08,23,20,25,16.20
2016,08,23,20,26,16.20
2016,08,23,20,27,16.20
2016,08,23,20,28,16.20
2016,08,23,20,29,16.10
2016,08,23,20,30,16.10
2016,08,23,20,31,16.10
2016,08,23,20,32,16.10
2016,08,23,20,33,16.10
2016,08,23,20,34,16.10
2016,08,23,20,35,16.10
2016,08,23,20,36,16.10
2016,08,23,20,37,15.90
2016,08,23,20,38,15.90
2016,08,23,20,39,15.90
2016,08,23,20,40,15.90
2016,08,23,20,41,15.90
2016,08,23,20,42,15.80
2016,08,23,20,43,15.80
2016,08,23,20,44,15.80
2016,08,23,20,45,15.80
2016,08,23,20,46,15.80
2016,08,23,20,47,15.80
2016,08,23,20,48,15.80
2016,08,23,20,49,15.80
2016,08,23,20,50,15.80
2016,08,23,20,51,15.80
2016,08,23,20,52,15.80
2016,08,23,20,53,15.80
2016,08,23,20,54,15.80
2016,08,23,20,55,15.80
2016,08,23,20,56,15.80
2016,08,23,20,57,15.80
2016,08,23,20,58,15.80
2016,08,23,20,59,15.80
2016,08,23,21,00,15.70
2016,08,23,21,01,15.70
2016,08,23,21,02,15.70
2016,08,23,21,03,15.70
2016,08,23,21,04,15.70
2016,08,23,21,05,15.80
2016,08,23,21,06,15.80
2016,08,23,21,07,15.80
2016,08,23,21,08,15.80
2016,08,23,21,09,15.80
2016,08,23,21,10,15.80
2016,08,23,21,11,15.90
2016,08,23,21,12,15.90
2016,08,23,21,13,15.90
2016,08,23,21,14,16.10
2016,08,23,21,15,16.10
2016,08,23,21,16,16.10